Location: ????????
(55.8351°N, 38.7040°E)
Time: 08:56:36
(UTC+00:00)

Thor Agena Rocket - Pass Details

Date: 14 April 2024
Orbit: 757 x 805 km, 99.1° (Epoch: 19 May)

Event Time Altitude Azimuth Distance (km) Brightness Sun altitude
Rises 01:15:31 0° 17° (NNE) 3,235 7.6 -9.2°
Reaches altitude 10° 01:17:50 10° 20° (NNE) 2,302 6.8 -9.0°
Maximum altitude 01:22:54 76° 106° (ESE) 788 3.7 -8.4°
Drops below altitude 10° 01:27:55 10° 192° (SSW) 2,286 5.6 -7.7°
Sets 01:30:13 0° 194° (SSW) 3,211 6.3 -7.5°
